Wind_Speed
14 13 13 13 15 12 8 6 6 5 4 4 3 3 3 2 3 3 3 3 3 3 3 3 3 3 3 3 4 3 4 4 5 5 6 6 7 9 9 9 9 9 9 9 10 10 10 9 9
14 12 14 16 15 10 8 8 7 6 5 4 4 4 4 4 3 3 3 3 3 3 3 3 3 3 3 3 4 3 3 4 4 5 5 5 6 8 8 9 9 9 9 9 9 9 9 10 9
16 15 18 17 12 9 9 9 8 8 6 5 5 5 5 5 4 4 4 3 3 3 3 3 3 3 3 4 4 4 4 4 4 5 5 5 5 7 7 9 9 9 10 9 9 9 9 10 9
17 19 20 15 10 9 9 9 9 8 7 6 6 6 6 5 5 5 5 4 3 3 3 3 3 3 3 3 3 3 3 4 5 5 5 5 5 7 8 9 9 9 9 10 9 8 8 9 9
18 21 17 13 12 12 11 10 10 9 8 7 7 7 6 6 5 5 5 5 4 4 3 3 3 3 2 2 3 3 3 3 5 4 5 5 6 8 8 9 9 9 10 10 9 8 8 8 9
20 18 13 12 13 12 12 11 11 10 9 9 8 8 7 7 6 6 6 5 5 4 4 3 3 2 1 1 1 2 2 2 3 4 4 5 6 7 6 8 9 10 9 9 9 9 7 8 8
18 15 12 10 11 12 12 12 11 10 10 10 9 9 8 7 7 7 6 5 5 5 5 4 3 2 2 2 2 1 1 1 2 3 3 5 6 6 6 7 8 9 9 9 9 8 7 8 8
15 14 10 9 10 11 11 11 11 11 11 11 11 10 9 8 8 7 7 6 5 6 5 4 3 2 2 2 2 1 1 2 3 4 4 5 6 6 7 8 8 9 9 8 8 8 7 8 7
13 12 10 8 9 10 11 12 12 12 12 12 12 12 11 10 9 8 7 7 6 6 6 5 4 2 2 2 2 1 2 3 3 3 4 5 6 5 6 7 8 8 8 8 7 7 7 7 7
11 9 8 8 9 11 12 12 12 12 12 12 12 12 11 10 10 9 8 7 7 7 6 5 5 4 3 2 2 2 2 3 4 4 4 6 7 5 5 6 7 8 8 7 7 7 7 7 6
9 6 7 8 10 12 12 13 13 13 13 13 12 12 11 10 10 9 9 9 8 7 7 6 6 5 5 3 3 3 3 3 3 3 4 5 7 6 6 6 7 8 8 8 8 8 8 7 7
7 7 7 8 9 11 12 13 14 14 14 13 12 12 12 11 10 10 9 9 8 8 7 6 6 7 6 5 4 3 3 3 2 3 3 4 5 6 7 7 7 8 8 8 8 7 7 7 7
5 6 6 7 8 10 11 12 13 13 13 13 13 13 12 12 11 11 10 9 9 8 8 8 7 7 6 6 5 4 3 4 3 2 3 4 5 6 6 7 6 5 5 5 5 6 7 6 6
1 3 5 7 8 10 10 12 13 14 13 13 13 12 12 12 11 11 10 10 9 8 8 8 8 7 7 7 7 6 5 5 4 4 5 5 5 5 6 6 5 4 4 4 3 4 5 5 6
1 3 5 8 10 11 11 12 14 14 14 13 13 12 12 12 11 11 10 10 9 9 8 8 8 7 7 7 7 6 7 6 5 5 5 5 5 4 5 5 5 4 4 3 3 4 4 4 5
4 4 4 6 8 11 11 11 14 14 14 13 13 13 12 12 12 12 11 10 9 8 8 8 7 7 7 6 6 7 7 7 7 7 6 6 5 4 4 3 3 3 3 2 3 3 3 4 5
3 3 4 4 6 8 9 10 13 14 13 14 13 12 12 12 12 12 11 10 8 8 7 7 7 7 6 6 6 6 6 6 6 6 6 5 4 3 3 2 2 1 2 2 2 3 3 3 4
4 2 5 6 5 6 7 9 11 12 13 13 13 12 12 12 12 12 11 10 9 8 7 7 6 6 6 5 5 5 5 5 5 5 5 5 4 4 3 2 2 1 1 1 2 3 3 3 4
5 3 4 6 7 6 7 9 10 12 13 12 12 12 12 11 11 11 11 11 10 9 8 6 6 6 6 5 4 4 4 4 4 3 3 3 3 3 3 2 1 0 1 1 1 2 3 4 4
7 6 6 6 8 8 8 8 9 10 10 12 11 11 12 11 10 10 10 10 10 9 8 7 6 6 6 6 5 4 3 2 2 2 2 2 2 1 1 1 1 2 2 2 3 3 3 3 3
10 9 8 8 9 9 9 9 8 8 9 11 11 10 10 10 9 9 9 9 9 9 9 8 7 6 5 5 5 5 4 3 2 2 2 1 1 1 2 2 2 3 3 3 3 4 4 4 4
12 11 10 12 11 10 9 11 10 10 7 10 10 9 9 9 10 9 8 8 8 8 8 8 7 6 6 5 6 6 5 4 3 3 2 2 2 2 3 3 3 4 4 4 4 4 4 5 5
14 13 13 12 11 12 11 11 11 10 9 10 10 10 8 9 9 9 8 7 7 8 7 7 6 6 6 5 5 5 5 5 4 3 3 3 3 4 5 5 5 5 5 5 5 6 6 6 7
15 13 13 13 12 14 12 12 13 13 11 12 12 11 8 8 8 9 8 7 6 6 6 6 6 6 5 5 5 5 5 5 5 4 4 4 5 6 6 6 6 6 6 6 6 6 6 7 7
16 14 14 14 13 14 12 12 12 13 12 13 12 12 10 10 9 8 8 7 6 6 6 5 5 5 6 6 5 5 5 6 6 6 6 6 7 7 7 7 7 7 7 7 7 7 8 8 9
18 17 16 16 15 13 12 15 13 14 14 14 13 13 11 11 10 8 8 8 7 6 6 6 6 6 6 6 6 6 6 6 6 7 7 8 7 7 8 8 8 7 8 8 8 9 9 10 10
19 18 17 18 17 16 15 15 14 14 15 15 13 12 12 12 11 9 8 8 8 8 7 6 6 7 7 7 7 7 7 7 8 8 8 9 9 9 9 9 8 8 8 9 9 10 10 10 10
21 20 18 20 20 18 16 13 13 15 16 15 15 14 13 12 12 12 11 10 9 9 9 8 8 8 9 9 9 9 9 9 10 10 10 10 10 10 10 10 9 9 10 10 11 11 11 11 11
21 21 20 20 20 18 16 14 15 18 17 15 15 17 15 14 13 14 12 12 12 11 11 10 10 11 11 11 11 11 11 11 12 12 12 12 12 12 12 12 11 11 11 11 12 12 12 13 13
21 22 22 22 21 19 19 19 16 17 17 17 16 18 18 16 16 14 14 14 13 14 13 12 13 13 13 13 13 13 13 13 13 13 13 13 14 14 14 14 13 13 14 13 13 14 14 14 15
Wind_Direction
75 76 73 67 57 46 30 24 22 24 26 25 16 8 3 350 343 323 318 324 321 312 304 304 297 277 265 243 233 233 234 215 200 202 195 192 189 184 185 184 179 173 171 170 170 169 172 177 175
73 74 69 59 51 30 21 20 24 27 27 25 20 18 13 7 353 335 326 329 320 308 297 293 293 280 264 257 249 238 238 225 216 205 193 191 189 185 185 183 179 174 168 163 163 169 173 179 179
76 70 61 53 39 23 19 21 24 29 26 23 20 19 14 10 359 347 333 330 326 312 296 293 295 287 278 264 250 235 226 229 233 218 202 191 192 191 183 180 177 174 172 168 170 170 175 182 179
73 65 55 44 34 26 24 24 26 26 23 23 23 20 16 14 5 355 344 333 329 321 308 305 307 298 282 265 245 219 217 222 226 219 206 191 187 188 186 182 177 176 174 172 171 172 174 178 177
70 63 51 34 30 32 29 31 30 26 23 23 24 20 12 9 8 2 352 339 339 340 326 315 320 306 292 270 254 227 226 220 213 211 213 195 185 186 186 181 178 175 173 172 168 168 178 182 179
63 60 49 29 26 32 30 33 30 27 24 24 22 20 15 11 10 8 6 352 351 354 348 346 347 351 329 318 288 256 239 209 194 204 202 192 186 179 177 179 172 169 170 171 172 176 186 186 183
72 61 49 24 21 32 33 30 30 27 24 22 19 18 15 15 11 9 13 12 11 10 12 9 5 9 351 351 331 283 265 207 188 183 179 176 174 172 169 176 173 169 169 172 176 181 181 181 186
71 67 58 30 16 23 26 27 29 29 26 24 22 19 18 15 11 11 11 14 21 25 21 14 18 22 2 355 359 302 206 174 172 176 169 167 171 170 170 171 171 170 165 168 179 183 179 180 184
63 57 44 31 21 21 25 26 26 26 24 23 22 22 20 19 16 14 16 16 18 18 19 21 23 27 27 1 6 91 159 155 169 171 160 158 164 166 162 167 168 169 167 168 174 176 174 174 180
59 51 39 37 30 27 30 29 26 24 23 22 22 22 21 22 22 20 23 24 23 21 29 35 33 34 36 49 55 88 129 149 155 156 153 156 162 165 162 163 164 167 166 167 170 175 176 176 179
55 41 38 38 35 30 33 30 28 24 24 23 23 23 23 23 26 28 29 29 30 30 35 39 33 43 54 74 76 63 115 131 141 151 157 157 165 165 162 159 159 156 155 160 163 171 170 169 173
46 31 34 35 34 33 32 28 26 24 24 24 25 25 26 27 29 31 32 34 34 36 39 39 35 43 47 58 69 71 77 104 122 125 135 161 165 162 159 142 147 155 155 155 159 161 167 171 174
37 23 27 27 33 26 26 29 24 23 23 24 24 25 28 29 28 29 30 33 36 36 38 36 37 42 44 54 66 69 80 94 97 116 121 148 155 159 165 155 151 154 154 160 156 156 166 175 175
15 354 21 15 20 25 18 18 19 21 21 22 22 22 24 25 24 25 27 29 33 37 37 39 40 45 53 59 61 71 83 98 106 110 113 133 150 157 162 159 163 166 164 165 160 159 164 175 184
279 336 5 7 4 8 12 17 11 14 15 16 17 18 20 23 22 22 25 27 32 33 33 38 42 46 55 56 53 63 80 94 101 110 107 119 132 142 147 153 164 163 166 173 176 178 179 177 186
256 296 347 356 349 353 4 2 5 7 9 10 13 17 22 26 25 26 27 26 31 32 29 37 41 42 48 53 54 58 74 86 102 100 96 104 115 126 137 149 156 170 168 177 185 189 189 191 197
243 279 309 315 328 343 349 342 356 358 0 2 10 16 19 22 23 25 26 25 28 32 29 35 41 44 45 50 60 59 65 79 90 85 89 96 97 101 108 132 147 162 173 179 193 206 210 215 208
244 271 298 304 311 321 328 325 342 351 353 356 3 8 13 18 20 24 23 24 25 25 23 31 34 38 40 43 50 57 63 76 87 83 85 91 88 83 85 98 115 146 194 212 218 224 225 232 236
253 271 285 296 293 293 309 316 327 344 347 348 354 359 4 10 16 19 20 21 21 22 22 24 28 30 35 37 39 53 66 80 86 80 82 87 86 81 74 73 68 54 299 269 246 252 248 254 251
244 258 265 283 288 289 294 304 311 320 336 342 347 351 356 1 8 14 16 17 18 20 23 27 32 32 35 36 34 38 41 67 74 82 84 82 81 72 41 18 355 329 314 295 282 284 280 279 281
233 244 253 260 268 277 290 298 292 307 327 334 338 343 348 355 359 4 11 15 16 18 20 24 26 29 30 29 29 33 40 51 71 77 69 51 37 13 329 318 311 312 313 304 301 303 298 294 290
235 239 247 259 261 265 275 280 296 298 315 321 325 334 340 348 350 355 3 9 11 14 17 18 21 24 28 33 33 33 35 37 45 40 21 359 333 329 328 323 313 308 312 305 306 306 302 302 297
235 234 241 251 258 256 259 275 291 291 300 307 312 316 325 335 340 345 350 358 2 7 11 14 17 20 22 28 26 23 21 19 20 17 5 342 327 328 328 322 310 305 303 297 298 301 298 300 298
235 235 247 244 247 256 252 262 278 288 286 297 299 309 313 320 326 332 336 347 353 358 2 6 8 7 10 9 7 5 5 4 3 355 348 342 336 331 323 318 310 302 299 296 294 298 295 293 291
234 238 250 247 249 260 265 260 273 280 285 292 294 300 309 312 311 319 322 326 336 340 346 347 350 348 349 348 347 348 348 350 349 346 340 338 335 331 322 314 310 305 303 300 297 294 292 292 294
232 233 242 255 255 260 261 263 264 274 276 282 287 293 300 301 299 304 310 311 317 320 325 329 330 332 334 334 329 331 331 331 330 330 328 330 327 324 324 317 309 307 303 298 294 294 296 298 296
230 231 232 252 255 255 250 259 271 273 279 279 284 290 292 292 290 293 297 302 308 311 312 312 314 318 322 323 319 315 314 315 315 313 314 316 317 317 315 313 310 306 303 302 300 295 293 293 292
232 233 236 240 249 255 253 259 265 270 270 275 279 278 280 281 282 280 281 290 296 300 300 302 302 304 310 312 311 306 302 301 303 303 305 309 308 308 307 306 304 303 300 299 298 295 295 294 292
232 234 237 243 248 253 258 257 263 272 270 267 272 275 275 277 273 275 275 279 283 289 293 294 294 296 297 300 301 300 298 297 298 299 301 303 303 302 301 303 304 302 298 297 296 294 298 299 298
235 235 237 245 250 252 256 260 260 268 272 274 269 272 276 276 274 273 277 277 280 286 288 288 287 289 290 293 295 294 292 293 295 294 295 297 300 299 299 299 299 298 297 298 298 296 297 296 295
Height
5882 5881 5881 5880 5879 5880 5880 5879 5878 5878 5877 5876 5875 5874 5873 5873 5873 5874 5872 5870 5869 5869 5868 5867 5867 5867 5867 5867 5866 5866 5866 5866 5866 5867 5867 5868 5868 5869 5870 5871 5873 5874 5875 5877 5879 5881 5884 5885 5887
5884 5883 5882 5881 5881 5883 5882 5881 5880 5879 5878 5877 5876 5875 5874 5874 5873 5872 5871 5870 5869 5869 5868 5868 5867 5867 5867 5867 5867 5867 5866 5867 5867 5867 5867 5868 5868 5869 5870 5871 5873 5874 5876 5878 5880 5882 5883 5886 5888
5886 5884 5883 5884 5885 5885 5884 5883 5881 5880 5879 5878 5878 5877 5876 5875 5874 5872 5872 5871 5870 5869 5869 5868 5868 5867 5867 5867 5867 5867 5867 5867 5867 5867 5867 5868 5868 5869 5870 5872 5873 5875 5876 5878 5880 5882 5884 5886 5888
5888 5886 5886 5889 5888 5887 5886 5885 5883 5882 5881 5880 5879 5878 5876 5875 5874 5873 5872 5871 5870 5870 5869 5868 5868 5867 5867 5867 5867 5867 5867 5866 5867 5866 5867 5868 5868 5869 5870 5872 5873 5875 5877 5879 5880 5882 5884 5886 5888
5888 5887 5891 5892 5890 5889 5888 5886 5885 5884 5882 5881 5880 5879 5877 5876 5875 5874 5872 5871 5871 5870 5869 5869 5868 5868 5867 5867 5867 5866 5866 5866 5866 5866 5867 5868 5868 5869 5870 5872 5873 5875 5877 5879 5881 5883 5885 5886 5888
5889 5891 5895 5894 5893 5892 5890 5888 5887 5885 5884 5882 5881 5880 5879 5878 5876 5874 5873 5872 5871 5870 5869 5869 5868 5868 5868 5868 5867 5867 5866 5866 5866 5867 5867 5868 5869 5870 5871 5872 5874 5876 5877 5879 5881 5882 5884 5886 5888
5894 5896 5898 5897 5895 5894 5893 5890 5889 5888 5886 5884 5883 5881 5880 5878 5877 5875 5874 5872 5871 5870 5870 5869 5868 5868 5868 5868 5867 5867 5867 5867 5867 5867 5868 5869 5869 5871 5872 5873 5874 5876 5877 5878 5880 5882 5884 5886 5888
5899 5901 5900 5900 5898 5896 5895 5893 5891 5889 5888 5886 5884 5882 5881 5879 5877 5876 5875 5873 5871 5871 5870 5870 5869 5869 5869 5868 5868 5867 5867 5867 5867 5868 5869 5869 5870 5872 5873 5874 5875 5876 5878 5879 5880 5882 5884 5886 5888
5903 5904 5903 5902 5900 5898 5896 5894 5893 5891 5889 5887 5886 5884 5882 5880 5879 5877 5876 5874 5873 5872 5871 5870 5870 5869 5869 5868 5868 5868 5867 5868 5868 5869 5869 5870 5872 5873 5874 5875 5876 5877 5878 5879 5880 5882 5884 5886 5888
5906 5907 5905 5904 5902 5900 5898 5897 5895 5893 5891 5889 5887 5885 5883 5882 5880 5878 5877 5876 5874 5873 5872 5871 5870 5870 5869 5869 5868 5868 5868 5868 5869 5869 5870 5871 5873 5873 5875 5876 5877 5878 5878 5879 5880 5881 5884 5886 5888
5908 5908 5907 5905 5904 5902 5900 5899 5897 5895 5893 5891 5889 5887 5885 5883 5882 5880 5878 5877 5875 5874 5873 5873 5872 5870 5870 5870 5869 5869 5869 5869 5869 5870 5871 5872 5873 5874 5876 5877 5877 5878 5879 5880 5881 5882 5884 5886 5888
5911 5910 5908 5907 5906 5904 5903 5901 5899 5897 5896 5893 5891 5889 5887 5885 5883 5881 5880 5878 5877 5876 5875 5874 5873 5872 5871 5871 5871 5870 5870 5870 5871 5871 5872 5873 5874 5876 5877 5878 5879 5879 5880 5881 5883 5884 5885 5887 5889
5912 5911 5909 5908 5906 5905 5904 5902 5901 5899 5897 5895 5893 5890 5888 5886 5885 5883 5881 5880 5879 5878 5876 5875 5874 5874 5873 5873 5872 5872 5871 5871 5871 5871 5872 5873 5875 5877 5879 5880 5881 5882 5882 5884 5885 5886 5887 5888 5889
5913 5910 5909 5909 5908 5906 5905 5903 5902 5900 5898 5897 5895 5892 5890 5888 5886 5885 5883 5882 5880 5879 5878 5877 5876 5876 5875 5875 5874 5873 5873 5872 5872 5872 5873 5874 5876 5879 5880 5882 5883 5884 5885 5885 5886 5887 5888 5889 5890
5911 5912 5911 5910 5909 5908 5907 5905 5904 5902 5900 5898 5896 5894 5892 5889 5888 5886 5884 5883 5882 5881 5880 5879 5878 5877 5877 5877 5876 5875 5875 5874 5875 5875 5875 5876 5878 5880 5882 5883 5884 5885 5886 5887 5887 5888 5889 5890 5891
5911 5911 5911 5911 5911 5909 5909 5907 5905 5903 5901 5899 5897 5895 5893 5891 5889 5887 5886 5884 5883 5882 5881 5880 5880 5879 5878 5878 5878 5878 5878 5877 5877 5878 5878 5879 5880 5882 5883 5884 5885 5886 5887 5888 5888 5889 5890 5890 5891
5910 5911 5912 5912 5912 5911 5910 5907 5906 5904 5902 5900 5898 5896 5894 5893 5891 5889 5887 5886 5885 5884 5883 5882 5881 5881 5881 5880 5880 5880 5880 5880 5880 5881 5881 5882 5883 5883 5884 5885 5886 5887 5887 5888 5888 5889 5890 5891 5892
5911 5912 5913 5912 5912 5912 5911 5908 5907 5906 5904 5902 5899 5897 5896 5894 5892 5890 5889 5888 5886 5885 5884 5884 5883 5883 5882 5882 5882 5882 5882 5883 5883 5883 5883 5884 5884 5885 5886 5886 5887 5887 5888 5888 5889 5889 5890 5890 5891
5910 5911 5914 5914 5913 5912 5911 5908 5907 5906 5905 5903 5900 5899 5897 5895 5893 5892 5890 5889 5888 5887 5886 5885 5885 5884 5884 5884 5884 5884 5884 5884 5885 5885 5885 5885 5886 5886 5887 5887 5888 5888 5888 5889 5889 5890 5890 5890 5890
5910 5911 5912 5914 5912 5912 5911 5910 5907 5906 5905 5903 5901 5899 5898 5896 5895 5893 5892 5891 5889 5888 5887 5886 5886 5886 5885 5885 5885 5886 5885 5886 5886 5886 5887 5887 5887 5888 5888 5888 5889 5889 5889 5889 5890 5890 5890 5890 5890
5909 5911 5912 5912 5911 5911 5910 5909 5906 5905 5904 5903 5902 5900 5898 5897 5896 5894 5893 5892 5891 5889 5889 5888 5888 5887 5887 5887 5887 5887 5887 5887 5887 5887 5888 5888 5888 5889 5889 5889 5889 5889 5889 5889 5890 5890 5890 5890 5890
5908 5909 5910 5910 5910 5910 5910 5908 5907 5904 5904 5903 5901 5900 5899 5897 5896 5895 5894 5893 5892 5891 5890 5889 5889 5889 5889 5888 5888 5888 5888 5888 5888 5888 5888 5889 5889 5889 5889 5889 5889 5889 5889 5889 5889 5890 5889 5889 5889
5905 5906 5906 5907 5907 5907 5908 5907 5906 5903 5902 5902 5900 5899 5898 5897 5896 5895 5894 5894 5893 5892 5891 5890 5890 5890 5890 5890 5890 5890 5889 5889 5889 5889 5889 5889 5889 5889 5889 5889 5889 5889 5889 5889 5889 5889 5889 5889 5888
5902 5903 5904 5904 5905 5905 5905 5906 5905 5901 5900 5901 5900 5898 5897 5897 5897 5896 5895 5894 5894 5893 5892 5892 5891 5891 5891 5891 5891 5891 5890 5890 5890 5889 5889 5889 5889 5889 5889 5888 5888 5888 5888 5888 5888 5888 5888 5888 5887
5899 5901 5902 5902 5902 5902 5903 5902 5903 5901 5899 5899 5899 5898 5897 5896 5896 5895 5895 5894 5894 5893 5893 5893 5892 5892 5892 5891 5891 5891 5891 5890 5890 5890 5889 5889 5889 5889 5888 5888 5887 5887 5887 5887 5887 5886 5886 5886 5886
5895 5897 5899 5899 5899 5900 5900 5900 5900 5899 5898 5898 5897 5896 5896 5896 5895 5894 5894 5894 5893 5893 5893 5893 5892 5892 5892 5892 5891 5891 5891 5890 5890 5890 5890 5889 5889 5888 5888 5887 5886 5886 5885 5885 5885 5885 5884 5884 5884
5891 5892 5896 5897 5897 5897 5896 5897 5897 5896 5896 5895 5895 5895 5895 5894 5894 5893 5893 5893 5892 5892 5892 5892 5892 5892 5892 5891 5891 5891 5890 5890 5890 5889 5889 5888 5888 5887 5886 5886 5885 5884 5884 5884 5883 5883 5883 5882 5882
5886 5888 5892 5893 5893 5893 5893 5892 5894 5892 5892 5892 5893 5893 5892 5892 5892 5891 5891 5891 5891 5891 5891 5891 5891 5891 5891 5890 5890 5889 5889 5889 5888 5888 5888 5887 5886 5886 5885 5884 5883 5883 5882 5882 5881 5881 5880 5879 5879
5882 5884 5885 5887 5888 5889 5889 5892 5891 5890 5889 5889 5890 5890 5888 5889 5888 5889 5888 5889 5889 5889 5889 5889 5889 5889 5889 5889 5888 5888 5887 5887 5886 5886 5886 5885 5884 5884 5883 5882 5881 5880 5880 5879 5879 5878 5877 5877 5876
5877 5880 5882 5884 5884 5885 5886 5888 5887 5886 5885 5884 5884 5885 5885 5885 5886 5885 5885 5886 5886 5886 5885 5886 5887 5886 5886 5886 5886 5885 5885 5884 5884 5884 5883 5883 5882 5881 5880 5879 5879 5878 5877 5876 5876 5875 5874 5873 5873